Preview of NWS' New Version of Forecast
This preview is not operational and should not be used for support decisions.

Regional Weather Roundup (RWR)

Issued by National Weather Service (NWS)

                            
000
ASUS43 KDMX 242201
RWRIA 

WEATHER ROUNDUP FOR IOWA
NATIONAL WEATHER SERVICE DES MOINES IA
500 PM CDT MON JUN 24 2019

NOTE: "FAIR" INDICATES FEW OR NO CLOUDS BELOW 12,000 FEET WITH NO
SIGNIFICANT WEATHER AND/OR OBSTRUCTIONS TO VISIBILITY.

* - THESE STATIONS ARE NOT NWS STATIONS...THUS NOT UNDER NWS
QUALITY CONTROL.  THEY ALSO DO NOT REPORT WEATHER SUCH 
AS PRECIPITATION OR FOG.  

IAZ001>003-012>014-020>022-031>034-043>046-242300-
   NORTHWEST IOWA
  
CITY           SKY/WX    TMP DP  RH WIND       PRES   REMARKS
CARROLL *      MOSUNNY   77  55  47 W18       29.72S                  
CHEROKEE *     MOSUNNY   79  54  41 W13G20    29.71R                  
DENISON *      SUNNY     79  57  47 W12       29.75S HX  80           
LE MARS *      SUNNY     79  54  41 W13G21    29.71S                  
SHELDON *      SUNNY     77  61  57 NW8       29.68S                  
SIOUX CITY     MOSUNNY   81  56  42 W14       29.71S HX  81           
SPENCER        SUNNY     76  58  53 W6        29.70S                  
STORM LAKE *   SUNNY     75  59  57 N9        29.69S                  
$$
 
IAZ055>058-069>071-079>083-090>094-242300-
   SOUTHWEST IOWA
  
CITY           SKY/WX    TMP DP  RH WIND       PRES   REMARKS
ATLANTIC *     SUNNY     77  55  47 W16G22    29.75S                  
AUDUBON *      MOSUNNY   79  57  47 CALM      29.76S HX  80           
CLARINDA *     MOSUNNY   79  55  44 W9G18     29.79F                  
COUNCIL BLFS * SUNNY     79  54  41 W9        29.75S                  
CRESTON *      MOSUNNY   77  55  47 W17G23    29.77F                  
HARLAN  *      SUNNY     77  59  53 W13       29.75F                  
LAMONI         SUNNY     77  56  48 W17G26    29.78F                  
RED OAK *      SUNNY     81  55  41 W12G20    29.77F HX  80           
SHENANDOAH *   SUNNY     79  57  47 W15       29.77S HX  80           
$$
 
IAZ047>049-059>061-072>074-084-242300-
   CENTRAL IOWA
  
CITY           SKY/WX    TMP DP  RH WIND       PRES   REMARKS
AMES           SUNNY     78  55  44 W16G29    29.71F                  
ANKENY *       MOSUNNY   77  57  50 W10G20    29.74R                  
BOONE *        MOSUNNY   77  57  50 W16G25    29.71S                  
CHARITON *     MOSUNNY   75  59  57 W13G21    29.76S                  
DES MOINES     MOSUNNY   78  53  41 W16G24    29.73R                  
GRINNELL*      SUNNY     75  57  54 W18       29.73S                  
KNOXVILLE *    MOSUNNY   77  57  50 W16G23    29.74S                  
MARSHALLTOWN   SUNNY     75  58  55 W13G28    29.70R                  
NEWTON *       SUNNY     75  55  50 W17       29.73R                  
PELLA *          N/A     77  56  48 W12G18    29.74S                  
$$
 
IAZ004>006-015-016-023>025-035-036-242300-
   NORTH CENTRAL IOWA
  
CITY           SKY/WX    TMP DP  RH WIND       PRES   REMARKS
ALGONA *       SUNNY     72  57  60 W17G24    29.69R                  
CLARION *      PTSUNNY   72  59  64 W29       29.71R                  
ESTHERVILLE    MOSUNNY   74  59  59 W14G25    29.68S                  
FORT DODGE *   SUNNY     75  58  55 W10G17    29.71R                  
MASON CITY     SUNNY     76  55  48 W22G31    29.68S                  
FOREST CITY *  PTSUNNY   75  52  43 W16G24    29.68R                  
IOWA FALLS *   FAIR      75  57  54 W17G26    29.71S                  
$$

IAZ007>011-017>019-026>030-037>042-050>054-066-242300-
   NORTHEAST IOWA
  
CITY           SKY/WX    TMP DP  RH WIND       PRES   REMARKS
CEDAR RAPIDS   FAIR      72  58  61 W17G25    29.68R                  
CHARLES CITY * PTSUNNY   73  57  56 W24G31    29.66S                  
CLINTON *      FAIR      71  64  78 W21       29.67R                  
DECORAH *      FAIR      64  59  82 VRB5      29.63R                  
DUBUQUE        FAIR      71  63  75 W17G28    29.65R                  
MONTICELLO *   FAIR      73  59  60 W20G26    29.66S                  
OELWEIN *      FAIR      73  61  64 W17G26    29.66S                  
WATERLOO       FAIR      78  56  46 W17G24    29.66R                  
$$
 
IAZ064-065-067-068-078-242300-
   EAST CENTRAL IOWA
  
CITY           SKY/WX    TMP DP  RH WIND       PRES   REMARKS
DAVENPORT      FAIR      72  63  73 W13       29.69F                  
IOWA CITY      LGT RAIN  72  61  68 NW15G23   29.71R                  
MT. PLEASANT * MOSUNNY   77  59  53 W15G23    29.73R                  
MUSCATINE *    PTSUNNY   75  57  53 W17G24    29.70R                  
QUAD CITIES    FAIR      76  61  59 W20G31    29.67S                  
$$
 
IAZ062-063-075>077-085>089-095>099-242300-
   SOUTHEAST IOWA
  
CITY           SKY/WX    TMP DP  RH WIND       PRES   REMARKS
BURLINGTON     MOSUNNY   76  61  59 W12G22    29.72R                  
FAIRFIELD *    MOSUNNY   75  57  53 W18       29.74R                  
FORT MADISON * MOSUNNY   75  61  60 W15G21    29.75R                  
KEOKUK *       MOSUNNY   77  57  50 W16G23    29.75R                  
OSKALOOSA *    FAIR      75  58  54 W16G22    29.74S                  
OTTUMWA        MOSUNNY   76  57  51 W20G26    29.74S                  
WASHINGTON *   MOSUNNY   75  63  64 W16G26    29.71R                  
$$

ABBREVIATIONS USED IN REMARKS
   TC - TEMPERATURES IN CELSIUS
  WCI - WIND CHILL INDEX
   HX - HEAT INDEX
  VSB - VISIBILITY  
$$